Location: Recife
(8.0585°S, 34.8848°W)
Time: 10:06:02
(UTC-03:00)

Explorer 7 - Pass Details

Date: 22 April 2026
Orbit: 427 x 536 km, 50.2° (Epoch: 14 May)

Event Time Altitude Azimuth Distance (km) Brightness Sun altitude
Rises 22:16:35 0° 328° (NNW) 2,533 - -74.3°
Reaches altitude 10° 22:18:47 10° 331° (NNW) 1,638 - -74.8°
Maximum altitude 22:22:27 64° 53° (NE) 514 - -75.6°
Drops below altitude 10° 22:26:00 10° 135° (SE) 1,586 - -76.5°
Sets 22:28:07 0° 138° (SE) 2,445 - -77.0°
